Location: Unspecified
(0.0000°N, 0.0000°E)
Time: 17:15:11
(UTC+00:00)

ISS - Pass Details

Date: 16 December 2018
Orbit: 401 x 408 km, 51.6° (Epoch: 12 December)

Event Time Altitude Azimuth Distance (km) Brightness Sun altitude
Rises 19:24:27 0° 304° (NW) 2,296 0.4 -20.3°
Reaches altitude 10° 19:26:47 10° 288° (WNW) 1,442 -0.4 -20.8°
Maximum altitude 19:29:24 23° 234° (SW) 915 -1.2 -21.4°
Drops below altitude 10° 19:32:02 10° 180° (S) 1,448 -0.7 -22.0°
Sets 19:34:23 0° 164° (SSE) 2,310 0.1 -22.5°
